Regional Weather Roundup
Issued by NWS Sterling, VA

Home | Current Version | Previous Version | Text Only | Print | Product List | Glossary Off
Versions: 1 2 3 4 5 6 7 8 9 10 11 12 13 14 15 16 17 18 19 20 21 22 23 24 25 26 27 28 29 30 31 32 33 34 35 36 37 38 39 40 41 42 43 44 45 46 47 48 49 50

000
ASUS41 KLWX 191611
RWRLWX

REGIONAL WEATHER ROUNDUP
NATIONAL WEATHER SERVICE BALTIMORE MD/WASHINGTON DC
1200 PM EDT THU OCT 19 2017

Note: "FAIR" indicates few or no clouds below 12,000 feet
with no significant weather and/or obstructions to visibility.
 TC=TEMPERATURE CELSIUS

 * =Non NWS site. Station does not report precipitation (e.g. rain,
    snow, etc.), thunder, or fog.

DCZ001-MDZ009-015-VAZ040>042-051-053>054-191700-
WASHINGTON METRO

CITY           SKY/WX    TMP DP  RH WIND       PRES   REMARKS
WASHINGTON NAT SUNNY     65  49  56 S9        30.28F
DULLES         MOSUNNY   63  47  55 S7        30.26F
ANDREWS AFB    SUNNY     67  42  39 SW10      30.27F
FT BELVOIR     SUNNY     66  45  45 SW3       30.27F
QUANTICO       SUNNY     65  49  56 S7        30.28F
COLLEGE PARK*  SUNNY     65  44  48 SW5       30.27S
LEESBURG*      SUNNY     64  48  55 SE3       30.27F
MANASSAS*      SUNNY     64  47  53 S5        30.27F
GAITHERSBURG*  SUNNY     65  45  48 SW6       30.27F

$$

MDZ006>007-011-014-191700-
BALTIMORE METRO

CITY           SKY/WX    TMP DP  RH WIND       PRES   REMARKS
BWI AIRPORT    MOSUNNY   66  46  48 SW8       30.26F
MD SCIENCE CTR   N/A     68  43  40 MISG      30.26F
MARTIN STATE   MOSUNNY   66  50  55 S9        30.28F
ANNAPOLIS      SUNNY     67  48  50 SW9       30.26F
FORT MEADE*    SUNNY     64  45  48 SW8       30.29F

$$

MDZ012-015-019>023-191700-
MARYLAND EASTERN SHORE

CITY           SKY/WX    TMP DP  RH WIND       PRES   REMARKS
OCEAN CITY     SUNNY     68  55  63 SW7       30.28F HAZE
SALISBURY      SUNNY     68  53  58 SW8       30.28F
CAMBRIDGE*     SUNNY     66  52  59 SW7       30.28F
EASTON*        MOSUNNY   68  48  49 W9        30.31F

$$

MDZ017>025-191700-
SOUTHERN MARYLAND

CITY           SKY/WX    TMP DP  RH WIND       PRES   REMARKS
PATUXENT RIVER MOSUNNY   67  50  54 SW8       30.28F
ST INIGOES     SUNNY     67  52  58 SW8       30.28F
LEONARDTOWN*   NOT AVBL

$$

MDZ003>005-191700-
NORTH CENTRAL MARYLAND

CITY           SKY/WX    TMP DP  RH WIND       PRES   REMARKS
FREDERICK*     SUNNY     66  45  45 SW5       30.28F
HAGERSTOWN APT SUNNY     63  44  50 SW5       30.24F
WESTMINSTER*   SUNNY     64  45  48 SW8       30.25F

$$

MDZ501>502-191700-
WESTERN MARYLAND

CITY           SKY/WX    TMP DP  RH WIND       PRES   REMARKS
OAKLAND*       SUNNY     57  39  51 W8G20     30.26S
CUMBERLAND*    SUNNY     59  45  58 S3        30.29F

$$

VAZ025>031-191700-
SHENANDOAH VALLEY

CITY           SKY/WX    TMP DP  RH WIND       PRES   REMARKS
WINCHESTER*    SUNNY     64  45  48 CALM      30.25F
FRONT ROYAL*   SUNNY     68  43  40 SW5       30.25S
LURAY*         SUNNY     64  43  45 SW3       30.26F
NEW MARKET*    SUNNY     65  44  46 CALM      30.25F
STAUNTON*      SUNNY     66  43  43 S3        30.29S
WAYNESBORO*    SUNNY     66  40  38 W7        30.27S

$$

WVZ021-048>050-054>055-191700-
EASTERN WEST VIRGINIA PANHANDLE

CITY           SKY/WX    TMP DP  RH WIND       PRES   REMARKS
MARTINSBURG    SUNNY     64  45  49 SE3       30.24F
PETERSBURG*    SUNNY     65  45  48 CALM      30.24F

$$

VAZ036>039-050-191700-
CENTRAL FOOTHILLS

CITY           SKY/WX    TMP DP  RH WIND       PRES   REMARKS
CHARLOTTESVILL SUNNY     67  43  41 S6        30.26S
CULPEPER*      SUNNY     65  43  46 S3        30.27F
ORANGE*        SUNNY     64  45  48 SW7       30.26F
GORDONSVILLE*  SUNNY     65  45  48 SW7       30.26F
WARRENTON*     SUNNY     65  41  41 SW5       30.26F

$$

VAZ055>057-191700-
NORTH AND CENTRAL PIEDMONT

CITY           SKY/WX    TMP DP  RH WIND       PRES   REMARKS
FREDERICKSBRG* SUNNY     68  45  42 SW7       30.26F
STAFFORD*      SUNNY     66  42  42 S7        30.31S

$$

NCZ024-NYZ072-PAZ021-071-VAZ022-071-191700-
OTHER REGIONAL OBSERVATIONS

CITY           SKY/WX    TMP DP  RH WIND       PRES   REMARKS
NEW YORK CITY  SUNNY     67  45  45 CALM      30.25F
PHILADELPHIA   MOSUNNY   66  45  46 SW13      30.26F
PITTSBURGH     PTSUNNY   65  46  50 W10       30.23S
ROANOKE        SUNNY     64  45  49 VRB3      30.32F
RICHMOND       MOSUNNY   67  49  52 S9        30.28F
RALEIGH        MOSUNNY   66  52  60 CALM      30.32F

$$

ANZ530>537-191700-
MARINE OBSERVATIONS

STATION/POSITION TIME  TEMP    WIND        PRES
                       AIR SEA DIR/SP/G
                 (UTC) (F)     (DEG/KT/KT) (MB)
THOMAS PT LIGHT  1600   63 68  210/  9/ 10   N/A
BALT KEY BRIDGE  1548   63     230/  7/ 10 1024.7F
COVE POINT       1548   63     220/  9/ 11 1025.9F
LEWISETTA        1548   64 64  270/  9/ 11 1025.3F
SOLOMONS ISLAND  1548   66 69  240/  8/ 11 1025.0F
PINEY POINT      1530          250/  3/  6   N/A

$$




USA.gov is the U.S. government's official web portal to all federal, state and local government web resources and services.